Regional Weather Roundup
Issued by NWS

Home | Current Version | Previous Version | Graphics & Text | Print | Product List | Glossary Off
Versions: 1 2 3 4 5 6 7 8 9 10 11 12 13 14 15 16 17 18 19 20 21 22 23 24 25 26 27 28 29 30 31 32 33 34 35 36 37 38 39 40 41 42 43 44 45 46 47 48 49 50

567
ASUS43 KTOP 302059
RWRKS

WEATHER ROUNDUP FOR KANSAS
NATIONAL WEATHER SERVICE GOODLAND KS
400 PM CDT MON MAY 30 2016

NOTE:  "FAIR" INDICATES FEW OR NO CLOUDS BELOW 12,000 FEET WITH NO
SIGNIFICANT WEATHER AND/OR OBSTRUCTIONS TO VISIBILITY.

KSZ001>006-013>018-027>032-041>047-302200-
NORTHWEST KANSAS

CITY           SKY/WX    TMP DP  RH WIND       PRES   REMARKS
GOODLAND       SUNNY     83  55  38 S20       29.89F
HAYS           SUNNY     82  55  39 S18G24    29.91F
HILL CITY      SUNNY     85  53  33 S15G23    29.89F
RUSSELL        SUNNY     81  59  47 S21       29.90F
$$

KSZ061>065-074>080-084>089-302200-
SOUTHWEST KANSAS

CITY           SKY/WX    TMP DP  RH WIND       PRES   REMARKS
DODGE CITY     SUNNY     81  55  40 S18G29    29.92F
ELKHART          N/A     83  54  37 SE24        N/A
GARDEN CITY    SUNNY     84  50  30 S20G25    29.91F
GREAT BEND     SUNNY     81  57  44 S17G26    29.91F
LIBERAL        SUNNY     82  52  34 S18G24    29.94F
$$

KSZ066>073-081>083-090>101-302200-
SOUTHEAST KANSAS

CITY           SKY/WX    TMP DP  RH WIND       PRES   REMARKS
CHANUTE        CLOUDY    77  63  61 SE12      30.01F
COFFEYVILLE    PTSUNNY   76  67  73 E13       30.00F
HUTCHINSON     MOSUNNY   83  60  45 S10G21    29.93F
MEDICINE LODGE   N/A     84  56  38 S12G20    29.92F
NEWTON         SUNNY     81  59  47 S14       29.98F
PARSONS        CLOUDY    76  66  71 SE7       30.02F
WICHITA INTL   MOSUNNY   83  62  49 SE10G20   29.94F
WICHITA JABRA  SUNNY     81  60  48 S14G20    29.95F
WICHITA MCCONL SUNNY     82  59  44 S12       29.95F
WINFIELD       MOSUNNY   80  62  54 SE15G22   29.97F
$$

KSZ007>012-019>026-033>040-048>060-102>105-302200-
NORTHEAST KANSAS

CITY           SKY/WX    TMP DP  RH WIND       PRES   REMARKS
CONCORDIA      SUNNY     82  59  45 S15G21    29.93F
EMPORIA        SUNNY     80  62  54 SE13      29.98F
LAWRENCE       CLOUDY    80  67  64 SE16      29.97F
MANHATTAN      SUNNY     86  59  39 S10       29.92F
OLATHE IND     PTSUNNY   76  64  66 SE13      30.01F
OLATHE EXE     CLOUDY    71  62  73 S9        30.01F
SALINA         SUNNY     84  62  47 S14G22    29.92F
TOPEKA BILLARD CLOUDY    84  62  47 S16G24    29.95F
TOPEKA FORBES  MOSUNNY   83  65  54 S15G22    29.96F
$$




USA.gov is the U.S. government's official web portal to all federal, state and local government web resources and services.